Weather History for Cape Girardeau, MO

Change the Weather History Date:

Monday, November 17, 2014

  Actual Average Record
Temperature  
Mean Temperature 23 °F 46 °F  
Max Temperature 32 °F 57 °F 74 °F (2001)
Min Temperature 14 °F 36 °F 14 °F (1997)
Degree Days  
Heating Degree Days 42 19  
Month to date heating degree days 425 264  
Since 1 July heating degree days 674 567  
Cooling Degree Days 0 0  
Month to date cooling degree days 0 0  
Year to date cooling degree days 1424 1451  
Moisture  
Dew Point 18 °F    
Average Humidity 71    
Maximum Humidity 92    
Minimum Humidity 49    
Precipitation  
Precipitation 0.03 in 0.15 in 1.17 in (1969)
Month to date precipitation 1.04 2.39  
Year to date precipitation 39.70 40.51  
Sea Level Pressure  
Sea Level Pressure 30.12 in    
Wind  
Wind Speed 13 mph (NW)    
Max Wind Speed 22 mph    
Max Gust Speed 29 mph    
Visibility 9 miles    
Events Snow    
T = Trace of Precipitation, MM = Missing Value Source: NWS Daily Summary

Daily Weather History Graph

Daily Weather History Graph

Search for Another Location

Airport:

Trip Planner

Search our weather history database for the weather conditions in past years. The results will help you decide how hot, cold, wet, or windy it might be!

Date:

Astronomy

Nov. 17, 2014 Rise Set
Actual Time 6:39 AM CST 4:46 PM CST
Civil Twilight 6:11 AM CST 5:14 PM CST
Nautical Twilight 5:39 AM CST 5:46 PM CST
Astronomical Twilight 5:09 AM CST 6:17 PM CST
Moon 1:47 AM CST (11/17) 2:04 PM CST (11/17)
Length of Visible Light 11h 03m
Length of Day
10h 07m
Waning Crescent, 22% of the Moon is Illuminated
Nov 17
Waning Crescent
Nov 22
New
Nov 29
First Quarter
Dec 6
Full
Dec 14
Last Quarter

Hourly Weather History & Observations

Time (CST) Temp. Windchill Dew Point Humidity Pressure Visibility Wind Dir Wind Speed Gust Speed Precip Events Conditions
12:07 AM 32.0 °F 24.8 °F 30.9 °F 96% 30.01 in 1.0 mi NW 8.1 mph - 0.01 in Snow Light Snow
12:38 AM 30.9 °F 22.2 °F 30.0 °F 96% 30.00 in 2.0 mi NW 10.4 mph - 0.03 in Snow Light Snow
12:53 AM 30.9 °F 20.7 °F 28.9 °F 92% 30.00 in 1.5 mi NW 13.8 mph - 0.03 in Snow Light Snow
1:31 AM 30.0 °F 19.5 °F 28.0 °F 92% 29.99 in 2.5 mi NNW 13.8 mph - 0.01 in Snow Light Snow
1:33 AM 30.0 °F 20.5 °F 28.0 °F 92% 29.99 in 3.0 mi NW 11.5 mph - 0.01 in Snow Light Snow
1:53 AM 30.0 °F 19.5 °F 27.0 °F 88% 30.00 in 8.0 mi NNW 13.8 mph - 0.01 in   Overcast
2:26 AM 28.9 °F 19.2 °F 24.1 °F 82% 30.00 in 10.0 mi NNW 11.5 mph - N/A   Overcast
2:44 AM 28.9 °F 19.8 °F 24.1 °F 82% 30.01 in 10.0 mi NW 10.4 mph - N/A   Overcast
2:53 AM 28.9 °F 19.2 °F 24.1 °F 82% 30.02 in 8.0 mi NW 11.5 mph - N/A   Overcast
3:46 AM 27.0 °F 15.6 °F 19.9 °F 75% 30.03 in 10.0 mi NW 13.8 mph - N/A   Overcast
3:53 AM 27.0 °F 14.7 °F 19.0 °F 72% 30.04 in 10.0 mi NW 16.1 mph - N/A   Overcast
4:53 AM 25.0 °F 12.2 °F 17.1 °F 72% 30.05 in 10.0 mi NW 16.1 mph 20.7 mph N/A   Overcast
5:53 AM 23.0 °F 13.1 °F 16.0 °F 74% 30.09 in 10.0 mi WNW 9.2 mph - N/A   Mostly Cloudy
6:53 AM 19.9 °F 9.3 °F 12.9 °F 74% 30.11 in 10.0 mi WNW 9.2 mph - N/A   Clear
7:53 AM 19.0 °F 9.0 °F 12.9 °F 77% 30.14 in 10.0 mi West 8.1 mph - N/A   Clear
8:53 AM 23.0 °F 11.7 °F 15.1 °F 72% 30.14 in 10.0 mi WNW 11.5 mph - N/A   Clear
9:53 AM 26.1 °F 15.6 °F 16.0 °F 66% 30.15 in 10.0 mi NW 11.5 mph - N/A   Clear
10:53 AM 28.0 °F 15.7 °F 16.0 °F 61% 30.14 in 10.0 mi NW 17.3 mph - N/A   Scattered Clouds
11:53 AM 28.4 °F 17.5 °F 15.8 °F 59% 30.12 in 10.0 mi NW 13.8 mph - N/A   Clear
12:53 PM 30.0 °F 20.0 °F 14.0 °F 51% 30.12 in 10.0 mi NW 12.7 mph - N/A   Scattered Clouds
1:53 PM 30.9 °F 20.7 °F 15.1 °F 52% 30.13 in 10.0 mi NW 13.8 mph - N/A   Overcast
2:53 PM 30.0 °F 19.1 °F 15.1 °F 54% 30.15 in 10.0 mi WNW 15.0 mph - N/A   Overcast
3:53 PM 28.9 °F 17.7 °F 14.0 °F 54% 30.18 in 10.0 mi NW 15.0 mph - N/A   Overcast
4:53 PM 28.0 °F 18.6 °F 15.1 °F 58% 30.20 in 10.0 mi WNW 10.4 mph - N/A   Overcast
5:53 PM 26.1 °F 16.2 °F 14.0 °F 60% 30.23 in 10.0 mi NW 10.4 mph - N/A   Partly Cloudy
6:53 PM 26.1 °F 15.6 °F 14.0 °F 60% 30.26 in 10.0 mi NW 11.5 mph - N/A   Overcast
7:53 PM 24.1 °F 10.6 °F 10.0 °F 55% 30.28 in 10.0 mi NW 17.3 mph - N/A   Mostly Cloudy
8:53 PM 21.9 °F 6.5 °F 7.0 °F 53% 30.30 in 10.0 mi WNW 20.7 mph - N/A   Clear
9:53 PM 17.1 °F 5.8 °F 7.0 °F 65% 30.32 in 10.0 mi WNW 9.2 mph - N/A   Clear
10:53 PM 18.0 °F 7.7 °F 7.0 °F 62% 30.32 in 10.0 mi West 8.1 mph - N/A   Clear
11:53 PM 17.1 °F 5.0 °F 6.1 °F 62% 30.32 in 10.0 mi West 10.4 mph - N/A   Clear